User: anonymous   Login
Location: Unspecified
(0.0000°N, 0.0000°E)
Time: 03:31:05
(UTC+00:00)
Language:

COSMOS 2429 - Orbit

View from above orbital plane
View from above orbital plane
View from above satellite
View from above satellite

Ground track
Ground track

The orbit data is extracted from the following two-line orbital elements,

1 32052U 07038A   17173.89841607 +.00000020 +00000-0 +48461-5 0  9992
2 32052 082.9816 103.5663 0039458 038.3101 322.0846 13.74889921490737
Epoch (UTC): 22 June 2017 21:33:43
Eccentricity: 0.0039458
inclination: 82.9816°
perigee height: 953 km
apogee height: 1011 km
right ascension of ascending node: 103.5663°
argument of perigee: 38.3101°
revolutions per day: 13.74889921
mean anomaly at epoch: 322.0846°
orbit number at epoch: 49073

The dashed part of the orbit path shows where the satellite is in the earth's shadow,  

DLR